Paducah, KY

4:30 AM CDT on May 27, 2017 (GMT -0500)
Barkley Regional

Weather History for KPAH - June, 2013

Change the Weather History Date:

Tuesday, June 18, 2013

  Actual Average Record
Temperature  
Mean Temperature 76 °F 76 °F  
Max Temperature 86 °F 87 °F 99 °F (1944)
Min Temperature 65 °F 66 °F 49 °F (1960)
Degree Days  
Heating Degree Days 0 0  
Month to date heating degree days 0 0  
Since 1 June heating degree days 0 0  
Since 1 July heating degree days 4210 4128  
Cooling Degree Days 11 11  
Month to date cooling degree days 155 166  
Year to date cooling degree days 333 338  
Since 1 June cooling degree days 155 166  
Growing Degree Days 25 (Base 50)    
Moisture  
Dew Point 65 °F    
Average Humidity 76    
Maximum Humidity 100    
Minimum Humidity 51    
Precipitation  
Precipitation 0.40 in 0.13 in 1.38 in (2006)
Month to date precipitation 7.65 2.40  
Year to date precipitation 33.12 23.62  
Snow  
Snow 0.00 in 0.00 in 0.00 in (2002)
Month to date snowfall 0.0 0.0  
Since 1 June snowfall 0.0 0.0  
Since 1 July snowfall 6.8 9.1  
Snow Depth 0.00 in    
Sea Level Pressure  
Sea Level Pressure 29.92 in    
Wind  
Wind Speed 6 mph (North)    
Max Wind Speed 21 mph    
Max Gust Speed 29 mph    
Visibility 10 miles    
Events Rain , Thunderstorm    
T = Trace of Precipitation, MM = Missing Value Source: NWS Daily Summary

Daily Weather History Graph

Daily Weather History Graph

Search for Another Location

Airport or City:

Trip Planner

Search our weather history database for the weather conditions in past years. The results will help you decide how hot, cold, wet, or windy it might be!

Date:

Astronomy

Jun. 18, 2013 Rise Set
Actual Time 5:35 AM CDT 8:17 PM CDT
Civil Twilight 5:04 AM CDT 8:48 PM CDT
Nautical Twilight 4:25 AM CDT 9:27 PM CDT
Astronomical Twilight 3:42 AM CDT 10:10 PM CDT
Moon 3:07 PM CDT (6/18) 1:37 AM CDT (6/18)
Length of Visible Light 15h 44m
Length of Day
14h 42m
Waxing Gibbous, 71% of the Moon is Illuminated
Jun 18
Waxing Gibbous
Jun 23
Full
Jun 29
Last Quarter
Jul 8
New
Jul 15
First Quarter

Hourly Weather History & Observations

Time (CDT) Temp. Heat Index Dew Point Humidity Pressure Visibility Wind Dir Wind Speed Gust Speed Precip Events Conditions
12:27 AM 66.2 °F - 64.4 °F 94% 29.89 in 9.0 mi ESE 10.4 mph - 0.01 in Rain Light Rain
12:53 AM 66.9 °F - 64.9 °F 93% 29.86 in 10.0 mi ESE 12.7 mph 18.4 mph 0.01 in   Overcast
1:53 AM 66.0 °F - 64.0 °F 93% 29.85 in 10.0 mi ENE 9.2 mph 18.4 mph N/A   Clear
2:50 AM 66.2 °F - 64.4 °F 94% 29.88 in 10.0 mi North 5.8 mph - N/A   Overcast
2:53 AM 66.0 °F - 64.0 °F 93% 29.88 in 10.0 mi North 6.9 mph - N/A   Overcast
3:38 AM 66.2 °F - 64.4 °F 94% 29.88 in 10.0 mi NNW 5.8 mph - N/A   Overcast
3:53 AM 66.0 °F - 64.0 °F 93% 29.88 in 10.0 mi NW 6.9 mph - N/A   Mostly Cloudy
4:53 AM 66.0 °F - 64.0 °F 93% 29.89 in 10.0 mi North 8.1 mph - N/A   Overcast
5:13 AM 66.2 °F - 64.4 °F 94% 29.89 in 10.0 mi NNE 3.5 mph - N/A   Overcast
5:53 AM 64.9 °F - 64.0 °F 97% 29.91 in 8.0 mi North 5.8 mph - N/A   Partly Cloudy
6:53 AM 66.9 °F - 64.0 °F 90% 29.92 in 9.0 mi Variable 5.8 mph 20.7 mph N/A   Clear
7:53 AM 70.0 °F - 64.9 °F 84% 29.93 in 10.0 mi NNE 8.1 mph 21.9 mph N/A   Clear
8:53 AM 72.0 °F - 66.0 °F 81% 29.96 in 10.0 mi North 8.1 mph - N/A   Scattered Clouds
9:14 AM 73.4 °F - 66.2 °F 78% 29.96 in 10.0 mi North 6.9 mph - N/A   Mostly Cloudy
9:35 AM 73.4 °F - 64.4 °F 73% 29.95 in 10.0 mi NNE 9.2 mph - N/A   Scattered Clouds
9:53 AM 75.0 °F - 64.9 °F 71% 29.95 in 10.0 mi NE 10.4 mph - N/A   Clear
10:53 AM 78.1 °F - 66.0 °F 66% 29.96 in 10.0 mi NNE 6.9 mph - N/A   Scattered Clouds
11:53 AM 80.1 °F 82.1 °F 66.0 °F 62% 29.95 in 10.0 mi North 8.1 mph - N/A   Clear
12:53 PM 81.0 °F 82.7 °F 64.9 °F 58% 29.96 in 10.0 mi NNW 6.9 mph - N/A   Clear
1:53 PM 82.9 °F 84.6 °F 64.9 °F 54% 29.94 in 10.0 mi Calm Calm - N/A   Clear
2:53 PM 84.0 °F 86.3 °F 66.0 °F 55% 29.93 in 10.0 mi NW 4.6 mph - N/A   Clear
3:53 PM 84.9 °F 86.6 °F 64.9 °F 51% 29.92 in 10.0 mi NNW 3.5 mph - N/A   Clear
4:53 PM 84.0 °F 85.8 °F 64.9 °F 53% 29.91 in 10.0 mi WNW 4.6 mph - N/A   Clear
5:53 PM 84.9 °F 86.6 °F 64.9 °F 51% 29.89 in 10.0 mi Calm Calm - N/A   Clear
6:53 PM 84.0 °F 85.8 °F 64.9 °F 53% 29.90 in 10.0 mi West 4.6 mph - N/A   Clear
7:53 PM 78.1 °F - 68.0 °F 71% 29.91 in 10.0 mi SW 3.5 mph - N/A   Clear
8:53 PM 77.0 °F - 68.0 °F 74% 29.91 in 10.0 mi SSW 3.5 mph - N/A   Scattered Clouds
9:53 PM 73.9 °F - 68.0 °F 82% 29.93 in 10.0 mi SSW 3.5 mph - N/A   Partly Cloudy
10:43 PM 75.2 °F - 66.2 °F 73% 29.94 in 10.0 mi SSW 5.8 mph - N/A Thunderstorm Mostly Cloudy
10:53 PM 75.9 °F - 66.0 °F 71% 29.94 in 10.0 mi SSW 5.8 mph - N/A Thunderstorm Thunderstorm
11:18 PM 69.8 °F - 66.2 °F 88% 29.96 in 10.0 mi East 17.3 mph 21.9 mph 0.00 in Rain , Thunderstorm Light Thunderstorms and Rain
11:36 PM 68.0 °F - 66.2 °F 94% 29.96 in 5.0 mi ENE 6.9 mph 26.5 mph 0.11 in Rain , Thunderstorm Light Thunderstorms and Rain
11:53 PM 69.1 °F - 66.0 °F 90% 29.96 in 10.0 mi East 10.4 mph - 0.11 in Thunderstorm Thunderstorm